Home > Weather > Decatur > Past weeks

Flag for USA Past Weather in Decatur, Illinois, USA — Yesterday and Last 2 Weeks

Now
78 °F

Fog.


Feels Like: 81 °F
Forecast: 76 / 92 °F
Wind: 3 mph from Southeast

Location: Decatur Airport

Current Time: Jul 24, 2016 at 2:03:39 AM

Latest Report: Jul 24, 2016 at 12:54 AM


Visibility: 4 mi

Pressure: 29.95 "Hg

Humidity: 90%

Dew Point: 75 °F

Location of DecaturLocation

Past Weather in Decatur — Graph

°F

Decatur Temperature Yesterday

Maximum temperature yesterday: 91 °F (at 3:54 PM)
Minimum temperature yesterday: 72 °F (at 5:54 AM)
Average temperature yesterday: 83 °F

High & Low Weather Summary for the Past Weeks

 TemperatureHumidityPressure
High93 °F (Jul 21, 1:54 PM)96% (Jul 19, 3:54 AM)30.23 "Hg (Jul 19, 3:54 AM)
Low59 °F (Jul 10, 3:54 AM)48% (Jul 14, 3:54 PM)29.78 "Hg (Jul 13, 4:54 PM)
Average78 °F75%30.03 "Hg
* Reported Jul 9 12:54 AM — Jul 24 12:54 AM, Decatur, Weather by CustomWeather, © 2016

Note: Actual official high and low records may vary slightly from our data, if they occured in-between our weather recording intervals... More about our weather records

Advertising

Decatur Weather History for the Previous 24 Hours

Scroll right to see more
 ConditionsComfort  
Time TempWeatherWind HumidityBarometerVisibility
12:54 AM
Sun, Jul 24
78 °FFog.3 mph90%29.95 "Hg4 mi
11:54 PM
Sat, Jul 23
81 °FClear.5 mph82%29.96 "Hg6 mi
10:54 PM81 °FClear.6 mph85%29.95 "Hg6 mi
9:54 PM82 °FClear.7 mph82%29.93 "Hg7 mi
8:54 PM83 °FSunny.6 mph82%29.92 "Hg10 mi
7:54 PM86 °FSunny.7 mph72%29.90 "Hg10 mi
6:54 PM89 °FScattered clouds.8 mph65%29.91 "Hg10 mi
5:54 PM90 °FSunny.9 mph63%29.91 "Hg10 mi
4:54 PM90 °FSunny.13 mph63%29.91 "Hg10 mi
3:54 PM91 °FSunny.9 mph61%29.93 "Hg10 mi
2:54 PM90 °FPassing clouds.8 mph61%29.96 "Hg10 mi
1:54 PM90 °FSunny.7 mph59%29.98 "Hg10 mi
12:54 PM89 °FSunny.7 mph61%29.98 "Hg10 mi
11:54 AM88 °FSunny.9 mph63%29.99 "Hg10 mi
10:54 AM86 °FPassing clouds.6 mph70%29.99 "Hg10 mi
9:54 AM84 °FSunny.6 mph74%29.99 "Hg10 mi
8:54 AM83 °FSunny.5 mph77%30.00 "Hg10 mi
7:54 AM79 °FSunny.No wind84%30.00 "Hg10 mi
6:54 AM76 °FSunny.No wind91%29.99 "Hg10 mi
5:54 AM72 °FClear.3 mph91%29.98 "Hg10 mi
4:54 AM73 °FClear.3 mph90%29.98 "Hg10 mi
3:54 AM73 °FClear.No wind94%29.98 "Hg10 mi
2:54 AM74 °FClear.No wind91%29.98 "Hg10 mi
Weather by CustomWeather, © 2016

See weather overviewHow to use our weather pages